Location: Charlotte
(35.2269°N, 80.8433°W)
Time: 07:51:13
(UTC-04:00)

ISS - Visible Passes

Search period start: 30 September 2014 00:00
Search period end: 10 October 2014 00:00
Orbit: 413 x 416 km, 51.6° (Epoch: 30 September)

Date Brightness Start Highest point End Pass type
(mag) Time Alt. Az. Time Alt. Az. Time Alt. Az.
30 Sep 0.0 04:51:46 12° NE 04:51:46 12° NE 04:52:35 10° ENE visible
30 Sep -3.4 06:24:40 11° NW 06:27:53 81° SW 06:31:12 10° SE visible
01 Oct -2.6 05:38:22 46° N 05:38:48 51° NE 05:42:02 10° ESE visible
02 Oct 0.0 04:52:12 12° E 04:52:12 12° E 04:52:33 10° E visible
02 Oct -2.0 06:25:08 20° W 06:26:13 23° SW 06:28:54 10° S visible
03 Oct -1.3 05:39:07 21° SSE 05:39:07 21° SSE 05:40:23 10° SSE visible
03 Oct -0.6 20:37:38 10° S 20:37:46 11° S 20:37:46 11° S visible
04 Oct -1.3 19:49:48 10° SSE 19:51:25 13° SE 19:51:39 13° ESE visible
04 Oct 0.0 21:24:33 10° WSW 21:24:34 10° WSW 21:24:34 10° WSW visible
05 Oct -3.2 20:35:15 10° SW 20:38:14 70° SW 20:38:14 70° SW visible
06 Oct -2.8 19:46:17 10° SSW 19:49:25 41° SE 19:51:43 16° ENE visible
06 Oct -0.1 21:23:43 10° W 21:24:37 14° WNW 21:24:37 14° WNW visible
07 Oct -1.6 20:33:51 10° W 20:36:51 31° NW 20:37:54 25° N visible
08 Oct -2.7 19:44:15 10° WSW 19:47:31 57° NW 19:50:48 10° NE visible
09 Oct -0.6 20:33:19 10° WNW 20:35:15 15° NNW 20:36:49 11° N visible
